Regional Weather Roundup
Issued by NWS Jackson, KY

Home | Current Version | Previous Version | Graphics & Text | Print | Product List | Glossary On
Versions: 1 2 3 4 5 6 7 8 9 10 11 12 13 14 15 16 17 18 19 20 21 22 23 24 25 26 27 28 29 30 31 32 33 34 35 36 37 38 39 40 41 42 43 44 45 46 47 48 49 50
000
ASUS43 KJKL 250210
RWRJKL

EAST KENTUCKY HOURLY WEATHER ROUNDUP
NATIONAL WEATHER SERVICE JACKSON KY
900 PM EST FRI FEB 24 2017

NOTE: "FAIR" INDICATES FEW OR NO CLOUDS BELOW 12,000 FEET WITH
NO SIGNIFICANT WEATHER AND/OR OBSTRUCTIONS TO VISIBILITY.

* THESE REPORTS ARE NOT UNDER NWS QUALITY CONTROL AND MAY NOT
  REPORT WEATHER SUCH AS PRECIPITATION AND FOG.

KYZ079-080-083-085-087-088-110-112-115-119-120-250300
...EASTERN KENTUCKY...

CITY           SKY/WX    TMP DP  RH WIND       PRES   REMARKS
JACKSON        CLEAR     70  49  47 SW8       29.65F
LONDON         CLEAR     70  48  45 S12       29.66F
SOMERSET*      CLOUDY    68  52  56 S8        29.66S
MONTICELLO*    PTCLDY    69  54  58 VRB6      29.67S
WILLIAMSBURG*  PTCLDY    70  50  49 S8        29.68F
MIDDLESBORO*   PTCLDY    70  52  52 S7        29.71F
HARLAN APT*    MOCLDY    70  46  43 CALM      29.72S
PIKE CO APT*     N/A     70  48  46 S7        29.67S
BIG SANDY APT* CLEAR     71  47  42 SW7       29.66S
MOREHEAD APT*  MOCLDY    70  50  49 S13       29.64R
ASHLAND*       CLEAR     70  52  52 W5        29.59R
$$

KYZ035-036-041-042-044-050-067-078-099-250300
...CENTRAL KENTUCKY...

CITY           SKY/WX    TMP DP  RH WIND       PRES   REMARKS
FLEMING/MASON* CLOUDY    68  51  56 S14       29.58F
DANVILLE*      PTCLDY    70  50  49 SW16      29.61S
LEXINGTON      CLOUDY    69  51  52 S12       29.58F
FRANKFORT      LGT RAIN  67  53  61 W13G35    29.57R
LOUISVILLE     CLOUDY    65  55  70 W10       29.58R
LEBANON*       LGT RAIN  64  57  77 SW12      29.61R
GLASGOW*       CLOUDY    63  54  73 W9G16     29.66R
BOWLING GREEN  LGT RAIN  66  53  63 W15       29.66R
$$

KYZ091>093-OHZ055-061-077-WVZ005-015-034-035-042-250300
...SOUTHERN OHIO/WEST VIRGINIA...

CITY           SKY/WX    TMP DP  RH WIND       PRES   REMARKS
COVINGTON      LGT RAIN  61  57  87 SW9       29.57R
COLUMBUS       CLOUDY    70  50  49 SE7       29.52F THUNDER
DAYTON         LGT RAIN  59  54  83 S12       29.54F
WILMINGTON     LGT RAIN  68  53  58 S13       29.53F
HUNTINGTON     CLEAR     71  46  40 SW7       29.61S
CHARLESTON     PTCLDY    70  45  40 SE8       29.62F
PINEVILLE*     CLEAR     61  48  63 MISG      29.77S
BECKLEY        CLEAR     61  48  62 S14       29.75R
BLUEFIELD      CLEAR     60  47  61 S9G25     29.78F
LOGAN CO APT*    N/A     70  45  40 S9G15     29.66F
$$

VAZ002-007-008-TNZ017-027-036-066-071-250300
...SOUTHWEST VIRGINIA/EAST TENNESSEE...

CITY           SKY/WX    TMP DP  RH WIND       PRES   REMARKS
WISE*          CLEAR     64  46  52 S12G17    29.77R
JONESVILLE*      N/A     57  50  77 CALM      29.75S
ABINGDON*      CLEAR     62  50  66 CALM      29.77R
BRISTOL        PTCLDY    65  50  58 S7        29.75R
MORRISTOWN*    MOCLDY    68  48  49 SW6       29.74R
SEVIERVILLE*   CLEAR     66  48  52 S5        29.74R
KNOXVILLE      PTCLDY    66  50  56 S7        29.72S
LAFOLLETTE*    CLOUDY    72  52  49 S10G21    29.74S
OAK RIDGE      CLOUDY    71  51  49 S7        29.73S
CROSSVILLE     PTCLDY    67  51  56 S6        29.74S
NASHVILLE      CLOUDY    69  52  54 W13       29.68R
$$

...KEY TO REMARKS...
VSB - VISIBILITY IN MILES
WCI - WIND CHILL INDEX
HX  - HEAT INDEX

$$



USA.gov is the U.S. government's official web portal to all federal, state and local government web resources and services.